Regional Weather Roundup
Issued by NWS

Home | Current Version | Previous Version | Text Only | Print | Product List | Glossary On
Versions: 1 2 3 4 5 6 7 8 9 10 11 12 13 14 15 16 17 18 19 20 21 22 23 24 25 26 27 28 29 30 31 32 33 34 35 36 37 38 39 40 41 42 43 44 45 46 47 48 49 50
000
ASUS44 KOUN 270410
RWROK

WEATHER ROUNDUP FOR OKLAHOMA
NATIONAL WEATHER SERVICE NORMAN OK
1100 PM CDT THU MAY 26 2016

NOTE: "FAIR" INDICATES FEW OR NO CLOUDS BELOW 12,000 FEET WITH NO
      SIGNIFICANT WEATHER AND/OR OBSTRUCTIONS TO VISIBILITY.

OKZ001>007-009>012-014-015-017-270500-
NORTHWEST OKLAHOMA AND THE PANHANDLE

CITY           SKY/WX    TMP DP  RH WIND       PRES   REMARKS
GAGE           CLOUDY    58  50  75 S14       29.68R
GUYMON         CLEAR     61  43  51 N15       29.74R
ENID/WOODRING  CLOUDY    72  63  73 S9        29.70R
$$

OKZ016-021>023-033>039-044-045-270500-
SOUTHWEST OKLAHOMA

CITY           SKY/WX    TMP DP  RH WIND       PRES   REMARKS
LAWTON/REGL    HVY RAIN  65  61  87 W16G23    29.83S VSB 3/4
LAWTON/FT SILL TSTM      63  59  88 S18       29.75S FOG
CLINTON        CLOUDY    71  65  81 S17G29    29.69R
HOBART         CLOUDY    70  58  65 S20       29.68R
ALTUS AFB      CLOUDY    67  59  76 SE14      29.70R
$$

OKZ018>020-024>031-270500-
CENTRAL OKLAHOMA

CITY           SKY/WX    TMP DP  RH WIND       PRES   REMARKS
OKLAHOMA CITY  LGT RAIN  71  65  81 S20G28    29.73R
OKC/WILEY POST CLOUDY    73  64  73 S33G43    29.69R
OKC/TINKER AFB CLOUDY    71  64  76 S22G28    29.76R
STILLWATER     MOCLDY    72  62  71 S17G24    29.74R
GUTHRIE        CLOUDY    73  63  70 S20G30    29.71R
$$

OKZ008-013-054>072-270500-
NORTHEAST OKLAHOMA

CITY           SKY/WX    TMP DP  RH WIND       PRES   REMARKS
TULSA          MOCLDY    75  66  73 S14       29.75R
TULSA/JONES    MOCLDY    74  65  73 S9        29.77R
PONCA CITY     CLOUDY    74  61  63 S18G28    29.72R
BARTLESVILLE   CLOUDY    72  66  81 S7        29.77R
MUSKOGEE       CLEAR     72  65  78 S10       29.78R
$$

OKZ032-040>043-046>053-073>077-270500-
SOUTH CENTRAL/SOUTHEAST OKLAHOMA

CITY           SKY/WX    TMP DP  RH WIND       PRES   REMARKS
ARDMORE/DWNTWN CLOUDY    72  63  73 SW9G17    29.79R
MCALESTER      CLOUDY    74  66  76 S8G26     29.80R
$$




USA.gov is the U.S. government's official web portal to all federal, state and local government web resources and services.